| time (UTC) | temp C | wind direction | speed KPH | gust KPH | rain 1hr cm | rain 24hr cm | rain mn cm | humidity % | barometer mb |
| 20260906165204 | 27 | 356 | 4.8 | 14.5 | 0.00 | 0.00 | 0.00 | 63 | 1013.5 |
| 20260906164704 | 26 | 33 | 6.4 | 11.3 | 0.00 | 0.00 | 0.00 | 64 | 1013.5 |
| 20260906164204 | 26 | 14 | 8.0 | 14.5 | 0.00 | 0.00 | 0.00 | 64 | 1013.5 |
| 20260906162704 | 26 | 68 | 6.4 | 14.5 | 0.00 | 0.00 | 0.00 | 63 | 1013.4 |
| 20260906162204 | 26 | 36 | 8.0 | 19.3 | 0.00 | 0.00 | 0.00 | 66 | 1013.4 |
| 20260906161704 | 26 | 48 | 4.8 | 14.5 | 0.00 | 0.00 | 0.00 | 63 | 1013.4 |
| 20260906161205 | 26 | 23 | 4.8 | 14.5 | 0.00 | 0.00 | 0.00 | 66 | 1013.3 |
| 20260906160704 | 26 | 0 | 8.0 | 14.5 | 0.00 | 0.00 | 0.00 | 66 | 1013.4 |
| 20260906160204 | 26 | 13 | 3.2 | 12.9 | 0.00 | 0.00 | 0.00 | 69 | 1013.7 |
| 20260906154204 | 25 | 334 | 8.0 | 16.1 | 0.00 | 0.00 | 0.00 | 67 | 1013.8 |
| 20260906153704 | 25 | 5 | 8.0 | 16.1 | 0.00 | 0.00 | 0.00 | 66 | 1013.9 |
| 20260906152704 | 25 | 1 | 9.7 | 14.5 | 0.00 | 0.00 | 0.00 | 66 | 1013.6 |
| 20260906152204 | 26 | 346 | 8.0 | 14.5 | 0.00 | 0.00 | 0.00 | 68 | 1013.5 |
| 20260906151705 | 25 | 21 | 4.8 | 16.1 | 0.00 | 0.00 | 0.00 | 66 | 1013.5 |
| 20260906150704 | 25 | 16 | 4.8 | 11.3 | 0.00 | 0.00 | 0.00 | 67 | 1013.4 |
| 20260906150204 | 25 | 37 | 6.4 | 12.9 | 0.00 | 0.00 | 0.00 | 69 | 1013.5 |
| 20260906144704 | 25 | 33 | 9.7 | 16.1 | 0.00 | 0.00 | 0.00 | 68 | 1013.5 |
| 20260906144204 | 25 | 11 | 4.8 | 12.9 | 0.00 | 0.00 | 0.00 | 69 | 1013.4 |
| 20260906143704 | 25 | 33 | 8.0 | 16.1 | 0.00 | 0.00 | 0.00 | 68 | 1013.4 |
| 20260906143204 | 25 | 352 | 6.4 | 19.3 | 0.00 | 0.00 | 0.00 | 70 | 1013.4 |
| 20260906142704 | 25 | 60 | 8.0 | 16.1 | 0.00 | 0.00 | 0.00 | 68 | 1013.4 |
| 20260906140704 | 25 | 53 | 4.8 | 19.3 | 0.00 | 0.00 | 0.00 | 73 | 1013.1 |
| 20260906135704 | 24 | 32 | 6.4 | 12.9 | 0.00 | 0.00 | 0.00 | 69 | 1013.2 |
| 20260906135204 | 24 | 14 | 4.8 | 19.3 | 0.00 | 0.00 | 0.00 | 70 | 1013.2 |
| 20260906132703 | 23 | 49 | 4.8 | 14.5 | 0.00 | 0.00 | 0.00 | 72 | 1012.9 |
| 20260906132204 | 23 | 354 | 6.4 | 16.1 | 0.00 | 0.00 | 0.00 | 73 | 1012.9 |
| 20260906131704 | 23 | 19 | 8.0 | 12.9 | 0.00 | 0.00 | 0.00 | 74 | 1012.8 |
| 20260906131204 | 23 | 344 | 6.4 | 16.1 | 0.00 | 0.00 | 0.00 | 71 | 1012.9 |
| 20260906130204 | 23 | 3 | 8.0 | 14.5 | 0.00 | 0.00 | 0.00 | 72 | 1013.0 |
| 20260906125704 | 23 | 353 | 8.0 | 16.1 | 0.00 | 0.00 | 0.00 | 73 | 1012.9 |
| 20260906124704 | 23 | 41 | 4.8 | 12.9 | 0.00 | 0.00 | 0.00 | 73 | 1012.9 |
| 20260906124204 | 22 | 29 | 4.8 | 11.3 | 0.00 | 0.00 | 0.00 | 74 | 1012.8 |
| 20260906123704 | 22 | 19 | 6.4 | 11.3 | 0.00 | 0.00 | 0.00 | 74 | 1012.8 |
| 20260906123204 | 22 | 32 | 6.4 | 11.3 | 0.00 | 0.00 | 0.00 | 75 | 1012.9 |
| 20260906122704 | 22 | 55 | 4.8 | 14.5 | 0.00 | 0.00 | 0.00 | 75 | 1012.7 |
| 20260906122204 | 22 | 15 | 4.8 | 14.5 | 0.00 | 0.00 | 0.00 | 76 | 1012.8 |
| 20260906121704 | 22 | 17 | 6.4 | 14.5 | 0.00 | 0.00 | 0.00 | 77 | 1012.7 |
| 20260906120704 | 21 | 53 | 8.0 | 14.5 | 0.00 | 0.00 | 0.00 | 80 | 1012.7 |
| 20260906115704 | 20 | 64 | 8.0 | 14.5 | 0.00 | 0.00 | 0.00 | 83 | 1012.6 |
| 20260906114704 | 20 | 35 | 4.8 | 12.9 | 0.00 | 0.00 | 0.00 | 83 | 1012.5 |
| 20260906114204 | 20 | 47 | 4.8 | 9.7 | 0.00 | 0.00 | 0.00 | 84 | 1012.4 |
| 20260906112704 | 19 | 30 | 1.6 | 4.8 | 0.00 | 0.00 | 0.00 | 83 | 1012.3 |
| 20260906112203 | 19 | 41 | 3.2 | 8.0 | 0.00 | 0.00 | 0.00 | 83 | 1012.1 |
| 20260906111704 | 19 | 55 | 1.6 | 4.8 | 0.00 | 0.00 | 0.00 | 83 | 1012.1 |
| 20260906110704 | 19 | 56 | 1.6 | 4.8 | 0.00 | 0.00 | 0.00 | 83 | 1012.1 |
| 20260906110204 | 19 | 42 | 3.2 | 4.8 | 0.00 | 0.00 | 0.00 | 83 | 1012.0 |
| 20260906105204 | 19 | 58 | 6.4 | 9.7 | 0.00 | 0.00 | 0.00 | 83 | 1011.9 |
| 20260906104204 | 19 | 27 | 3.2 | 8.0 | 0.00 | 0.00 | 0.00 | 82 | 1011.6 |
| 20260906103704 | 19 | 55 | 4.8 | 11.3 | 0.00 | 0.00 | 0.00 | 82 | 1011.6 |
| 20260906103204 | 19 | 53 | 4.8 | 8.0 | 0.00 | 0.00 | 0.00 | 81 | 1011.5 |
| 20260906102704 | 19 | 49 | 3.2 | 9.7 | 0.00 | 0.00 | 0.00 | 81 | 1011.4 |
| 20260906102204 | 19 | 15 | 3.2 | 8.0 | 0.00 | 0.00 | 0.00 | 81 | 1011.4 |
| 20260906101204 | 19 | 66 | 3.2 | 4.8 | 0.00 | 0.00 | 0.00 | 81 | 1011.2 |
| 20260906100704 | 20 | 77 | 1.6 | 3.2 | 0.00 | 0.00 | 0.00 | 81 | 1011.2 |
| 20260906100204 | 20 | 73 | 1.6 | 3.2 | 0.00 | 0.00 | 0.00 | 81 | 1011.1 |
| 20260906095704 | 20 | 77 | 1.6 | 3.2 | 0.00 | 0.00 | 0.00 | 80 | 1011.0 |
| 20260906095204 | 20 | 358 | 0.0 | 1.6 | 0.00 | 0.00 | 0.00 | 80 | 1011.0 |
| 20260906094706 | 20 | 358 | 0.0 | 1.6 | 0.00 | 0.00 | 0.00 | 80 | 1010.9 |
| 20260906094205 | 20 | 354 | 0.0 | 3.2 | 0.00 | 0.00 | 0.00 | 79 | 1010.9 |
| 20260906093706 | 20 | 329 | 1.6 | 4.8 | 0.00 | 0.00 | 0.00 | 79 | 1010.8 |
| 20260906093205 | 20 | 15 | 3.2 | 4.8 | 0.00 | 0.00 | 0.00 | 79 | 1010.7 |
| 20260906092705 | 20 | 27 | 1.6 | 4.8 | 0.00 | 0.00 | 0.00 | 78 | 1010.7 |
| 20260906092206 | 20 | 39 | 1.6 | 4.8 | 0.00 | 0.00 | 0.00 | 78 | 1010.7 |
| 20260906090705 | 20 | 35 | 4.8 | 9.7 | 0.00 | 0.00 | 0.00 | 79 | 1010.4 |
| 20260906090206 | 20 | 54 | 4.8 | 8.0 | 0.00 | 0.00 | 0.00 | 79 | 1010.5 |
| 20260906085705 | 20 | 47 | 3.2 | 8.0 | 0.00 | 0.00 | 0.00 | 79 | 1010.4 |
| 20260906085205 | 20 | 24 | 3.2 | 4.8 | 0.00 | 0.00 | 0.00 | 79 | 1010.5 |
| 20260906084705 | 20 | 43 | 3.2 | 8.0 | 0.00 | 0.00 | 0.00 | 79 | 1010.4 |
| 20260906084205 | 20 | 18 | 1.6 | 3.2 | 0.00 | 0.00 | 0.00 | 78 | 1010.5 |
| 20260906083706 | 20 | 5 | 0.0 | 4.8 | 0.00 | 0.00 | 0.00 | 78 | 1010.5 |
| 20260906083205 | 20 | 48 | 1.6 | 4.8 | 0.00 | 0.00 | 0.00 | 78 | 1010.5 |
| 20260906082206 | 20 | 75 | 1.6 | 4.8 | 0.00 | 0.00 | 0.00 | 78 | 1010.4 |
| 20260906081705 | 20 | 68 | 3.2 | 8.0 | 0.00 | 0.00 | 0.00 | 78 | 1010.4 |
| 20260906081205 | 20 | 37 | 1.6 | 4.8 | 0.00 | 0.00 | 0.00 | 78 | 1010.3 |
| 20260906080705 | 20 | 44 | 1.6 | 8.0 | 0.00 | 0.00 | 0.00 | 78 | 1010.3 |
| 20260906080206 | 20 | 30 | 3.2 | 11.3 | 0.00 | 0.00 | 0.00 | 79 | 1010.2 |
| 20260906075706 | 20 | 39 | 4.8 | 11.3 | 0.00 | 0.00 | 0.00 | 80 | 1010.2 |
| 20260906075205 | 20 | 34 | 3.2 | 8.0 | 0.00 | 0.00 | 0.00 | 80 | 1010.2 |
| 20260906074705 | 20 | 58 | 4.8 | 8.0 | 0.00 | 0.00 | 0.00 | 80 | 1010.2 |
| 20260906074206 | 20 | 62 | 4.8 | 8.0 | 0.00 | 0.00 | 0.00 | 80 | 1010.1 |
| 20260906073706 | 20 | 1 | 3.2 | 4.8 | 0.00 | 0.00 | 0.00 | 80 | 1010.2 |
| 20260906073205 | 20 | 22 | 1.6 | 4.8 | 0.00 | 0.00 | 0.00 | 81 | 1010.1 |
| 20260906072706 | 20 | 350 | 1.6 | 4.8 | 0.00 | 0.00 | 0.00 | 81 | 1010.1 |
| 20260906072205 | 20 | 50 | 1.6 | 4.8 | 0.00 | 0.00 | 0.00 | 81 | 1010.0 |
| 20260906071705 | 20 | 48 | 3.2 | 8.0 | 0.00 | 0.00 | 0.00 | 81 | 1010.1 |
| 20260906071205 | 20 | 21 | 4.8 | 11.3 | 0.00 | 0.00 | 0.00 | 81 | 1010.1 |
| 20260906070206 | 20 | 10 | 1.6 | 4.8 | 0.00 | 0.00 | 0.00 | 82 | 1010.2 |
| 20260906065705 | 20 | 26 | 1.6 | 4.8 | 0.00 | 0.00 | 0.00 | 83 | 1010.2 |
| 20260906065206 | 20 | 356 | 0.0 | 3.2 | 0.00 | 0.00 | 0.00 | 83 | 1010.2 |
| 20260906064705 | 20 | 27 | 1.6 | 4.8 | 0.00 | 0.00 | 0.00 | 84 | 1010.2 |
| 20260906064205 | 20 | 52 | 1.6 | 3.2 | 0.00 | 0.00 | 0.00 | 84 | 1010.3 |
| 20260906063705 | 20 | 355 | 0.0 | 3.2 | 0.00 | 0.00 | 0.00 | 85 | 1010.2 |
| 20260906062705 | 20 | 83 | 0.0 | 4.8 | 0.00 | 0.00 | 0.00 | 86 | 1010.2 |
| 20260906062205 | 20 | 29 | 1.6 | 4.8 | 0.00 | 0.00 | 0.00 | 86 | 1010.2 |
| 20260906061206 | 19 | 42 | 1.6 | 4.8 | 0.00 | 0.00 | 0.00 | 87 | 1010.2 |
| 20260906060205 | 19 | 48 | 4.8 | 9.7 | 0.00 | 0.00 | 0.00 | 89 | 1010.2 |
| 20260906055706 | 19 | 43 | 3.2 | 4.8 | 0.00 | 0.00 | 0.00 | 89 | 1010.2 |
| 20260906055205 | 19 | 40 | 1.6 | 4.8 | 0.00 | 0.00 | 0.00 | 90 | 1010.2 |
| 20260906054705 | 19 | 5 | 1.6 | 3.2 | 0.00 | 0.00 | 0.00 | 90 | 1010.3 |
| 20260906054206 | 19 | 53 | 0.0 | 0.0 | 0.00 | 0.00 | 0.00 | 90 | 1010.3 |
| 20260906053705 | 19 | 54 | 0.0 | 0.0 | 0.00 | 0.00 | 0.00 | 90 | 1010.3 |
| 20260906053205 | 19 | 102 | 0.0 | 0.0 | 0.00 | 0.00 | 0.00 | 89 | 1010.4 |
| 20260906052706 | 19 | 102 | 0.0 | 0.0 | 0.00 | 0.00 | 0.00 | 89 | 1010.4 |
| 20260906051205 | 19 | 102 | 0.0 | 1.6 | 0.00 | 0.00 | 0.00 | 88 | 1010.5 |
| 20260906050705 | 19 | 102 | 0.0 | 3.2 | 0.00 | 0.00 | 0.00 | 88 | 1010.5 |
| 20260906045706 | 19 | 102 | 0.0 | 0.0 | 0.00 | 0.00 | 0.00 | 88 | 1010.5 |
| 20260906045205 | 20 | 102 | 0.0 | 0.0 | 0.00 | 0.00 | 0.00 | 88 | 1010.6 |
| 20260906044705 | 20 | 102 | 0.0 | 1.6 | 0.00 | 0.00 | 0.00 | 88 | 1010.6 |
| 20260906044206 | 20 | 102 | 0.0 | 1.6 | 0.00 | 0.00 | 0.00 | 89 | 1010.5 |
| 20260906043705 | 20 | 102 | 0.0 | 1.6 | 0.00 | 0.00 | 0.00 | 89 | 1010.5 |
| 20260906043205 | 20 | 102 | 0.0 | 1.6 | 0.00 | 0.00 | 0.00 | 89 | 1010.6 |
| 20260906042705 | 20 | 102 | 0.0 | 1.6 | 0.00 | 0.00 | 0.00 | 89 | 1010.6 |
| 20260906042206 | 20 | 102 | 0.0 | 0.0 | 0.00 | 0.00 | 0.00 | 88 | 1010.5 |
| 20260906041205 | 20 | 102 | 0.0 | 1.6 | 0.00 | 0.00 | 0.00 | 89 | 1010.5 |
| 20260906040705 | 20 | 102 | 0.0 | 1.6 | 0.00 | 0.00 | 0.00 | 89 | 1010.6 |
| 20260906035705 | 20 | 102 | 0.0 | 0.0 | 0.00 | 0.00 | 0.00 | 89 | 1010.7 |
| 20260906035206 | 20 | 102 | 0.0 | 0.0 | 0.00 | 0.00 | 0.00 | 89 | 1010.7 |
| 20260906034705 | 20 | 102 | 0.0 | 1.6 | 0.00 | 0.00 | 0.00 | 89 | 1010.8 |
| 20260906034205 | 20 | 102 | 0.0 | 1.6 | 0.00 | 0.00 | 0.00 | 88 | 1010.7 |
| 20260906033705 | 20 | 102 | 0.0 | 1.6 | 0.00 | 0.00 | 0.00 | 87 | 1010.7 |
| 20260906033205 | 20 | 102 | 0.0 | 1.6 | 0.00 | 0.00 | 0.00 | 87 | 1010.7 |
| 20260906032705 | 20 | 102 | 0.0 | 1.6 | 0.00 | 0.00 | 0.00 | 87 | 1010.7 |
| 20260906032205 | 20 | 102 | 1.6 | 1.6 | 0.00 | 0.00 | 0.00 | 87 | 1010.7 |
| 20260906031705 | 20 | 102 | 0.0 | 1.6 | 0.00 | 0.00 | 0.00 | 87 | 1010.7 |
| 20260906031206 | 20 | 102 | 0.0 | 0.0 | 0.00 | 0.00 | 0.00 | 86 | 1010.8 |
| 20260906030706 | 20 | 102 | 0.0 | 0.0 | 0.00 | 0.00 | 0.00 | 86 | 1010.8 |
| 20260906030205 | 20 | 102 | 0.0 | 0.0 | 0.00 | 0.00 | 0.00 | 86 | 1010.8 |
| 20260906025705 | 21 | 102 | 0.0 | 0.0 | 0.00 | 0.00 | 0.00 | 86 | 1010.7 |
| 20260906025205 | 21 | 102 | 0.0 | 0.0 | 0.00 | 0.00 | 0.00 | 88 | 1010.6 |
| 20260906024706 | 21 | 102 | 0.0 | 0.0 | 0.00 | 0.00 | 0.00 | 88 | 1010.5 |
| 20260906024205 | 21 | 102 | 0.0 | 0.0 | 0.00 | 0.00 | 0.00 | 88 | 1010.7 |
| 20260906023705 | 21 | 102 | 0.0 | 1.6 | 0.00 | 0.00 | 0.00 | 88 | 1010.7 |
| 20260906022705 | 21 | 102 | 0.0 | 0.0 | 0.00 | 0.00 | 0.00 | 87 | 1010.7 |
| 20260906022205 | 21 | 102 | 0.0 | 0.0 | 0.00 | 0.00 | 0.00 | 86 | 1010.6 |
| 20260906020705 | 21 | 102 | 0.0 | 1.6 | 0.00 | 0.00 | 0.00 | 85 | 1010.6 |
| 20260906020205 | 21 | 102 | 0.0 | 0.0 | 0.00 | 0.00 | 0.00 | 85 | 1010.5 |
| 20260906015205 | 21 | 102 | 0.0 | 0.0 | 0.00 | 0.00 | 0.00 | 84 | 1010.4 |
| 20260906014705 | 21 | 102 | 0.0 | 0.0 | 0.00 | 0.00 | 0.00 | 83 | 1010.4 |
| 20260906014205 | 21 | 102 | 0.0 | 1.6 | 0.00 | 0.00 | 0.00 | 82 | 1010.4 |
| 20260906013705 | 21 | 102 | 1.6 | 1.6 | 0.00 | 0.00 | 0.00 | 82 | 1010.2 |
| 20260906013205 | 21 | 102 | 0.0 | 1.6 | 0.00 | 0.00 | 0.00 | 81 | 1010.1 |
| 20260906012205 | 22 | 102 | 0.0 | 0.0 | 0.00 | 0.00 | 0.00 | 80 | 1010.0 |
| 20260906011705 | 22 | 102 | 0.0 | 0.0 | 0.00 | 0.00 | 0.00 | 80 | 1009.9 |
| 20260906011206 | 22 | 102 | 0.0 | 0.0 | 0.00 | 0.00 | 0.00 | 80 | 1009.9 |
| 20260906010206 | 22 | 102 | 0.0 | 0.0 | 0.00 | 0.00 | 0.00 | 79 | 1009.9 |
| 20260906005705 | 22 | 102 | 0.0 | 0.0 | 0.00 | 0.00 | 0.00 | 78 | 1009.9 |
| 20260906005206 | 22 | 102 | 0.0 | 1.6 | 0.00 | 0.00 | 0.00 | 78 | 1009.8 |
| 20260906004705 | 22 | 102 | 0.0 | 1.6 | 0.00 | 0.00 | 0.00 | 78 | 1009.8 |
| 20260906004205 | 22 | 102 | 0.0 | 0.0 | 0.00 | 0.00 | 0.00 | 77 | 1009.8 |
| 20260906003705 | 22 | 102 | 0.0 | 0.0 | 0.00 | 0.00 | 0.00 | 77 | 1009.8 |
| 20260906003206 | 22 | 102 | 0.0 | 0.0 | 0.00 | 0.00 | 0.00 | 77 | 1009.8 |
| 20260906002705 | 22 | 102 | 0.0 | 0.0 | 0.00 | 0.00 | 0.00 | 77 | 1009.7 |
| 20260906002206 | 23 | 102 | 0.0 | 1.6 | 0.00 | 0.00 | 0.00 | 76 | 1009.6 |
| 20260906001705 | 23 | 102 | 0.0 | 1.6 | 0.00 | 0.00 | 0.00 | 76 | 1009.6 |
| 20260906001205 | 23 | 102 | 0.0 | 1.6 | 0.00 | 0.00 | 0.00 | 76 | 1009.5 |
| 20260906000705 | 23 | 102 | 0.0 | 1.6 | 0.00 | 0.00 | 0.00 | 75 | 1009.4 |
| 20260906000205 | 23 | 102 | 0.0 | 0.0 | 0.00 | 0.00 | 0.00 | 75 | 1009.4 |
| 20260905235705 | 23 | 102 | 0.0 | 0.0 | 0.00 | 0.00 | 0.00 | 75 | 1009.4 |
| 20260905235205 | 23 | 102 | 0.0 | 0.0 | 0.00 | 0.00 | 0.00 | 75 | 1009.4 |
| 20260905234706 | 23 | 102 | 0.0 | 0.0 | 0.00 | 0.00 | 0.00 | 75 | 1009.4 |
| 20260905233705 | 24 | 102 | 0.0 | 0.0 | 0.00 | 0.00 | 0.00 | 73 | 1009.2 |
| 20260905233205 | 24 | 103 | 0.0 | 0.0 | 0.00 | 0.00 | 0.00 | 73 | 1009.1 |
| 20260905232705 | 24 | 103 | 0.0 | 0.0 | 0.00 | 0.00 | 0.00 | 73 | 1009.2 |
| 20260905232205 | 25 | 103 | 0.0 | 1.6 | 0.00 | 0.00 | 0.00 | 71 | 1009.1 |
| 20260905231205 | 25 | 1 | 0.0 | 1.6 | 0.00 | 0.00 | 0.00 | 70 | 1009.1 |
| 20260905230705 | 25 | 1 | 0.0 | 0.0 | 0.00 | 0.00 | 0.00 | 70 | 1009.1 |
| 20260905230205 | 25 | 1 | 0.0 | 1.6 | 0.00 | 0.00 | 0.00 | 71 | 1009.2 |
| 20260905225706 | 25 | 5 | 0.0 | 1.6 | 0.00 | 0.00 | 0.00 | 70 | 1009.1 |
| 20260905225205 | 25 | 19 | 0.0 | 4.8 | 0.00 | 0.00 | 0.00 | 69 | 1009.0 |
| 20260905222705 | 25 | 9 | 3.2 | 4.8 | 0.00 | 0.00 | 0.00 | 67 | 1008.7 |
| 20260905222205 | 25 | 346 | 1.6 | 3.2 | 0.00 | 0.00 | 0.00 | 66 | 1008.7 |
| 20260905221205 | 26 | 6 | 3.2 | 9.7 | 0.00 | 0.00 | 0.00 | 66 | 1008.8 |
| 20260905220705 | 26 | 5 | 0.0 | 3.2 | 0.00 | 0.00 | 0.00 | 67 | 1008.7 |
| 20260905220205 | 26 | 5 | 0.0 | 3.2 | 0.00 | 0.00 | 0.00 | 68 | 1008.7 |
| 20260905215706 | 26 | 37 | 1.6 | 4.8 | 0.00 | 0.00 | 0.00 | 68 | 1008.7 |
| 20260905214705 | 26 | 42 | 1.6 | 4.8 | 0.00 | 0.00 | 0.00 | 65 | 1008.6 |
| 20260905214205 | 26 | 43 | 1.6 | 3.2 | 0.00 | 0.00 | 0.00 | 65 | 1008.6 |
| 20260905213205 | 26 | 329 | 0.0 | 4.8 | 0.00 | 0.00 | 0.00 | 63 | 1008.7 |
| 20260905212205 | 26 | 47 | 3.2 | 9.7 | 0.00 | 0.00 | 0.00 | 63 | 1008.5 |
| 20260905210705 | 27 | 54 | 8.0 | 14.5 | 0.00 | 0.00 | 0.00 | 62 | 1008.4 |
| 20260905205705 | 27 | 25 | 4.8 | 12.9 | 0.00 | 0.00 | 0.00 | 60 | 1008.3 |
| 20260905205205 | 28 | 31 | 4.8 | 12.9 | 0.00 | 0.00 | 0.00 | 61 | 1008.3 |
| 20260905204705 | 28 | 347 | 3.2 | 9.7 | 0.00 | 0.00 | 0.00 | 59 | 1008.4 |
| 20260905204206 | 28 | 23 | 4.8 | 16.1 | 0.00 | 0.00 | 0.00 | 60 | 1008.5 |
| 20260905203705 | 27 | 69 | 6.4 | 19.3 | 0.00 | 0.00 | 0.00 | 59 | 1008.5 |
| 20260905203205 | 27 | 64 | 11.3 | 19.3 | 0.00 | 0.00 | 0.00 | 60 | 1008.5 |
| 20260905202705 | 27 | 21 | 8.0 | 14.5 | 0.00 | 0.00 | 0.00 | 62 | 1008.5 |
| 20260905202205 | 27 | 32 | 4.8 | 12.9 | 0.00 | 0.00 | 0.00 | 62 | 1008.5 |
| 20260905201705 | 27 | 45 | 4.8 | 9.7 | 0.00 | 0.00 | 0.00 | 63 | 1008.4 |
| 20260905200705 | 27 | 8 | 4.8 | 14.5 | 0.00 | 0.00 | 0.00 | 61 | 1008.4 |
| 20260905200205 | 27 | 49 | 6.4 | 16.1 | 0.00 | 0.00 | 0.00 | 61 | 1008.4 |
| 20260905195205 | 27 | 55 | 8.0 | 16.1 | 0.00 | 0.00 | 0.00 | 62 | 1008.3 |
| 20260905194705 | 27 | 354 | 6.4 | 12.9 | 0.00 | 0.00 | 0.00 | 62 | 1008.3 |
| 20260905194205 | 27 | 18 | 4.8 | 12.9 | 0.00 | 0.00 | 0.00 | 61 | 1008.3 |
| 20260905193705 | 27 | 6 | 3.2 | 14.5 | 0.00 | 0.00 | 0.00 | 57 | 1008.3 |
| 20260905192705 | 27 | 351 | 9.7 | 14.5 | 0.00 | 0.00 | 0.00 | 62 | 1008.5 |
| 20260905192205 | 27 | 4 | 9.7 | 14.5 | 0.00 | 0.00 | 0.00 | 65 | 1008.5 |
| 20260905191705 | 27 | 72 | 11.3 | 19.3 | 0.00 | 0.00 | 0.00 | 66 | 1008.6 |
| 20260905191205 | 27 | 76 | 4.8 | 12.9 | 0.00 | 0.00 | 0.00 | 63 | 1008.8 |
| 20260905190705 | 27 | 83 | 4.8 | 11.3 | 0.00 | 0.00 | 0.00 | 62 | 1009.0 |
| 20260905190205 | 27 | 57 | 9.7 | 19.3 | 0.00 | 0.00 | 0.00 | 63 | 1009.0 |
| 20260905185705 | 27 | 41 | 6.4 | 14.5 | 0.00 | 0.00 | 0.00 | 67 | 1009.1 |
| 20260905185205 | 27 | 1 | 4.8 | 9.7 | 0.00 | 0.00 | 0.00 | 65 | 1009.3 |
| 20260905184705 | 27 | 22 | 4.8 | 12.9 | 0.00 | 0.00 | 0.00 | 63 | 1009.3 |
| 20260905184205 | 27 | 34 | 4.8 | 9.7 | 0.00 | 0.00 | 0.00 | 66 | 1009.3 |
| 20260905183705 | 27 | 36 | 3.2 | 8.0 | 0.00 | 0.00 | 0.00 | 64 | 1009.4 |
| 20260905183205 | 27 | 65 | 4.8 | 11.3 | 0.00 | 0.00 | 0.00 | 63 | 1009.5 |
| 20260905182205 | 28 | 60 | 3.2 | 9.7 | 0.00 | 0.00 | 0.00 | 65 | 1009.7 |
| 20260905181205 | 27 | 12 | 3.2 | 4.8 | 0.00 | 0.00 | 0.00 | 63 | 1009.9 |
| 20260905180705 | 27 | 8 | 3.2 | 4.8 | 0.00 | 0.00 | 0.00 | 66 | 1009.9 |
| 20260905175705 | 27 | 295 | 0.0 | 4.8 | 0.00 | 0.00 | 0.00 | 66 | 1010.0 |
| 20260905174705 | 27 | 2 | 0.0 | 4.8 | 0.00 | 0.00 | 0.00 | 66 | 1010.0 |
| 20260905174205 | 27 | 301 | 1.6 | 4.8 | 0.00 | 0.00 | 0.00 | 65 | 1010.0 |
| 20260905173705 | 27 | 311 | 3.2 | 8.0 | 0.00 | 0.00 | 0.00 | 67 | 1010.1 |
| 20260905172705 | 27 | 3 | 1.6 | 8.0 | 0.00 | 0.00 | 0.00 | 67 | 1010.0 |
| 20260905172205 | 27 | 12 | 6.4 | 9.7 | 0.00 | 0.00 | 0.00 | 64 | 1010.0 |
| 20260905171705 | 27 | 11 | 4.8 | 11.3 | 0.00 | 0.00 | 0.00 | 63 | 1010.0 |
| 20260905171205 | 27 | 3 | 3.2 | 9.7 | 0.00 | 0.00 | 0.00 | 63 | 1010.0 |
| 20260905170705 | 27 | 19 | 4.8 | 12.9 | 0.00 | 0.00 | 0.00 | 63 | 1009.9 |
| 20260905170205 | 27 | 30 | 6.4 | 12.9 | 0.00 | 0.00 | 0.00 | 66 | 1010.0 |
| 20260905165705 | 27 | 352 | 6.4 | 14.5 | 0.00 | 0.00 | 0.00 | 67 | 1010.0 |